P/2022 L3 ( ATLAS )

Japanese version
Home page
Updated on March 27, 2023

---------------------------------------------------------------------

* Profile

Discovery Date June 12, 2022
Magnitude 17.6 mag
Discoverer Asteroid Terrestrial-Impact Last Alert System (ATLAS) search program

* Pictures

* Orbital Elements

Epoch 2023 Feb. 25.0 TT = JDT 2460000.5
T 2022 Oct. 29.95384 TT                                 Rudenko
q   2.4198610            (2000.0)            P               Q
n   0.05943790     Peri.   10.32755     +0.77077469     -0.61040379
a   6.5027006      Node    29.80551     +0.55522057     +0.50304830
e   0.6278683      Incl.   21.54311     +0.31246839     +0.61184118
P  16.6
>From 1040 observations 2022 June 12-2023 Feb. 16, mean residual 0".6.

* Finding Charts

* Magnitudes Graph

        m1 = 10.5 + 5 log d + 10.0 log r

---------------------------------------------------------------------

The orbital elements are published on M.P.E.C. 2023-D41.
The charts are made with StellaNavigator Ver.10 (AstroArts).
The magnitudes graphs are made with Comet for Windows.

---------------------------------------------------------------------

Copyright(C) Seiichi Yoshida (comet@aerith.net). All rights reserved.